Zurück zum Katalog

STARLINK-11372

AktivKommunikationVLEO
NORAD 61576·PAYLOAD·🇺🇸 United States

Gestartet Oct 18, 2024 von Cape Canaveral Space Force Station

Loading…

Nächste Überflüge (nächste 24 Stunden)

TLE

AktuellSource: CelesTrak SupGP

Epoche: Sep 15, 2026, 02:18 UTC

1 61576C 24187C   26258.09631944 -.00006848  00000+0 -56320-4 0  2581
2 61576  53.1569  82.4581 0001056  59.5110 170.3127 15.69749753    15

Verfolge STARLINK-11372 in Echtzeit mit AllMySat

Download on the App Store